Location: Essen
(51.4609°N, 7.0127°E)
Time: 21:38:28
(UTC+02:00)

ISS - Visible Passes

Search period start: 25 September 2020 00:00
Search period end: 05 October 2020 00:00
Orbit: 419 x 420 km, 51.6° (Epoch: 26 September)

Date Brightness Start Highest point End Pass type
(mag) Time Alt. Az. Time Alt. Az. Time Alt. Az.
25 Sep -3.8 20:57:36 10° W 21:00:59 85° N 21:02:08 38° E visible
25 Sep -0.8 22:34:26 10° W 22:35:06 15° W 22:35:06 15° W visible
26 Sep -3.8 20:10:12 10° W 20:13:35 89° S 20:16:31 13° E visible
26 Sep -2.7 21:47:03 10° W 21:49:28 44° W 21:49:28 44° W visible
27 Sep -3.8 20:59:38 10° W 21:03:02 90° SE 21:03:50 50° E visible
27 Sep -0.5 22:36:31 10° W 22:36:47 12° W 22:36:47 12° W visible
28 Sep -3.8 20:12:13 10° W 20:15:37 85° N 20:18:11 16° E visible
28 Sep -2.1 21:49:04 10° W 21:51:09 32° W 21:51:09 32° W visible
29 Sep -3.7 21:01:38 10° W 21:04:59 66° SSW 21:05:30 55° SSE visible
30 Sep -3.7 20:14:12 10° W 20:17:35 80° SSW 20:19:53 19° ESE visible
30 Sep -1.5 21:51:11 10° W 21:52:51 21° WSW 21:52:51 21° WSW visible
01 Oct -2.8 21:03:38 10° W 21:06:48 38° SSW 21:07:15 36° S visible
02 Oct -3.2 20:16:07 10° W 20:19:26 51° SSW 20:21:42 18° SE visible
02 Oct -0.9 21:53:50 10° WSW 21:54:40 13° WSW 21:54:40 13° WSW visible
03 Oct -1.7 21:05:52 10° W 21:08:25 20° SW 21:09:10 18° SSW visible
04 Oct -2.0 20:18:10 10° W 20:21:06 28° SSW 20:23:45 12° SSE visible
